TimeEDT,TemperatureF,Dew PointF,Humidity,Sea Level PressureIn,VisibilityMPH,Wind Direction,Wind SpeedMPH,Gust SpeedMPH,PrecipitationIn,Events,Conditions,WindDirDegrees,DateUTC
12:03 AM,77.0,72.0,84,30.17,10.0,SW,3.5,-,N/A,,Scattered Clouds,230,2013-07-08 04:03:00
12:56 AM,75.9,71.1,85,30.17,10.0,WSW,3.5,-,N/A,,Clear,250,2013-07-08 04:56:00
1:56 AM,75.0,71.1,87,30.17,10.0,Calm,Calm,-,N/A,,Clear,0,2013-07-08 05:56:00
2:30 AM,73.9,71.1,91,30.17,10.0,Calm,Calm,-,N/A,,Mostly Cloudy,0,2013-07-08 06:30:00
2:46 AM,75.0,72.0,90,30.17,10.0,Calm,Calm,-,N/A,,Scattered Clouds,0,2013-07-08 06:46:00
2:56 AM,75.0,72.0,90,30.17,10.0,Calm,Calm,-,N/A,,Clear,0,2013-07-08 06:56:00
3:56 AM,73.9,72.0,93,30.16,7.0,Calm,Calm,-,N/A,,Clear,0,2013-07-08 07:56:00
4:56 AM,73.9,72.0,93,30.17,10.0,Calm,Calm,-,N/A,,Mostly Cloudy,0,2013-07-08 08:56:00
5:20 AM,75.0,72.0,90,30.17,10.0,Calm,Calm,-,N/A,,Scattered Clouds,0,2013-07-08 09:20:00
5:56 AM,73.9,72.0,93,30.18,9.0,Calm,Calm,-,N/A,,Clear,0,2013-07-08 09:56:00
6:56 AM,73.9,72.0,93,30.19,7.0,Calm,Calm,-,N/A,,Mostly Cloudy,0,2013-07-08 10:56:00
7:56 AM,79.0,73.9,84,30.19,10.0,Calm,Calm,-,N/A,,Mostly Cloudy,0,2013-07-08 11:56:00
8:56 AM,82.0,73.9,76,30.20,10.0,SW,3.5,-,N/A,,Mostly Cloudy,220,2013-07-08 12:56:00
9:56 AM,82.9,73.0,72,30.20,10.0,SSW,3.5,-,N/A,,Mostly Cloudy,210,2013-07-08 13:56:00
10:56 AM,84.9,71.1,63,30.20,10.0,SSE,4.6,-,N/A,,Mostly Cloudy,160,2013-07-08 14:56:00
11:56 AM,86.0,71.1,61,30.20,10.0,South,4.6,-,N/A,,Clear,170,2013-07-08 15:56:00
12:56 PM,87.1,73.0,63,30.20,10.0,SSE,3.5,-,N/A,,Mostly Cloudy,160,2013-07-08 16:56:00
1:56 PM,89.1,73.0,59,30.19,10.0,Variable,3.5,-,N/A,,Mostly Cloudy,0,2013-07-08 17:56:00
2:56 PM,88.0,73.9,63,30.17,10.0,SE,4.6,-,N/A,,Mostly Cloudy,140,2013-07-08 18:56:00
3:56 PM,87.1,73.0,63,30.17,10.0,South,5.8,-,N/A,,Mostly Cloudy,170,2013-07-08 19:56:00
4:56 PM,87.1,73.9,65,30.15,10.0,South,5.8,-,N/A,,Mostly Cloudy,170,2013-07-08 20:56:00
5:56 PM,87.1,72.0,61,30.14,10.0,South,5.8,-,N/A,,Scattered Clouds,180,2013-07-08 21:56:00
6:56 PM,84.0,71.1,65,30.14,10.0,South,6.9,-,N/A,,Mostly Cloudy,180,2013-07-08 22:56:00
7:56 PM,82.0,72.0,71,30.14,10.0,South,6.9,-,N/A,,Mostly Cloudy,180,2013-07-08 23:56:00
8:56 PM,81.0,72.0,74,30.15,10.0,South,5.8,-,N/A,,Mostly Cloudy,190,2013-07-09 00:56:00
9:56 PM,81.0,72.0,74,30.18,10.0,SSW,5.8,-,N/A,,Scattered Clouds,200,2013-07-09 01:56:00
10:56 PM,79.0,72.0,79,30.19,10.0,SSW,4.6,-,N/A,,Clear,210,2013-07-09 02:56:00
11:56 PM,79.0,73.0,82,30.19,10.0,SSW,3.5,-,N/A,,Clear,200,2013-07-09 03:56:00